This demonstration page uses our WeatherBlox Daily Observations layout. Learn more.

Left ArrowRight Arrow

40.92501, -98.34201

Hourly Observations for July 29, 2021

Temp ( °F °C ) Dew Point ( °F °C ) Humidity (%) Winds ( mph kmh ) Pressure ( in mb ) Visibility ( mi km ) Precip ( " mm )
12:53 am 00:53 Clear 82 27.8 69 20.6 65 65 S 10 17 29.94 1014 10 16 0.00 0.00
1:53 am 01:53 Clear 82 27.8 68 20 63 63 SSW 15 24 29.95 1014 10 16 0.00 0.00
2:53 am 02:53 Mostly Clear 81 27.2 67 19.4 62 62 SSW 12 19 29.95 1014 10 16 0.00 0.00
3:53 am 03:53 Clear 80 26.7 67 19.4 64 64 SW 10 17 29.96 1015 10 16 0.00 0.00
4:53 am 04:53 Partly Cloudy 79 26.1 67 19.4 67 67 SSW 8 13 29.97 1015 10 16 0.00 0.00
5:53 am 05:53 Clear 78 25.6 68 20 71 71 SSW 8 13 29.98 1015 10 16 0.00 0.00
6:53 am 06:53 Sunny 74 23.3 68 20 82 82 NNE 7 11 30.03 1017 9 14 0.00 0.00
7:53 am 07:53 Sunny 79 26.1 69 20.6 72 72 S 5 7 30.03 1017 10 16 0.00 0.00
8:53 am 08:53 Sunny 82 27.8 70 21.1 67 67 S 7 11 30.02 1017 9 14 0.00 0.00
9:53 am 09:53 Partly Cloudy 88 31.1 71 21.7 57 57 Calm 30.02 1017 10 16 0.00 0.00
10:53 am 10:53 Mostly Cloudy 88 31.1 72 22.2 59 59 N 8 13 30.04 1017 10 16 0.00 0.00
11:53 am 11:53 Partly Cloudy 90 32.2 73 22.8 58 58 N 6 9 30.04 1017 10 16 0.00 0.00
12:53 pm 12:53 Sunny 91 32.8 76 24.4 61 61 NE 7 11 30.04 1017 9 14 0.00 0.00
1:53 pm 13:53 Mostly Sunny 92 33.3 75 23.9 58 58 NNE 8 13 30.04 1017 10 16 0.00 0.00
2:53 pm 14:53 Mostly Sunny 93 33.9 77 25 60 60 NNE 13 20 30.04 1017 9 14 0.00 0.00
3:53 pm 15:53 Sunny 91 32.8 76 24.4 61 61 NE 12 19 30.04 1017 7 11 0.00 0.00
4:36 pm 16:36 Mostly Cloudy 89 31.7 75 23.9 63 63 NNE 13 20 29.97 1015 7 11 0.00 0.00
4:53 pm 16:53 Mostly Cloudy 89 31.7 76 24.4 65 65 NE 10 17 30.04 1017 7 11 0.00 0.00
5:53 pm 17:53 Cloudy with Haze 86 30 75 23.9 70 70 NE 12 19 30.06 1018 6 10 0.00 0.00
6:53 pm 18:53 Mostly Cloudy 85 29.4 75 23.9 72 72 NE 12 19 30.05 1018 7 11 0.00 0.00
7:03 pm 19:03 Partly Cloudy 85 29.4 75 23.9 72 72 NE 15 24 29.98 1015 7 11 0.00 0.00
7:53 pm 19:53 Mostly Cloudy 83 28.3 73 22.8 72 72 ENE 9 15 30.05 1018 7 11 0.00 0.00
8:10 pm 20:10 Mostly Cloudy 82 27.8 73 22.8 74 74 ENE 8 13 29.99 1016 7 11 0.00 0.00
8:31 pm 20:31 Hazy 81 27.2 73 22.8 77 77 NE 7 11 29.98 1015 6 10 0.00 0.00
8:53 pm 20:53 Hazy 80 26.7 73 22.8 79 79 NE 7 11 30.05 1018 6 10 0.00 0.00
9:53 pm 21:53 Clear 78 25.6 73 22.8 85 85 NE 6 9 30.06 1018 7 11 0.00 0.00
10:53 pm 22:53 Hazy 77 25 72 22.2 85 85 NE 5 7 30.07 1018 6 10 0.00 0.00
11:53 pm 23:53 Clear with Mist and Fog 76 24.4 72 22.2 88 88 ENE 7 11 30.07 1018 6 10 0.00 0.00

Powered by AerisWeather